Location: Chemnitz
(49.5500°N, 11.5830°E)
Time: 14:49:42
(UTC+02:00)

ISS - Pass Details

Date: 23 March 2017
Orbit: 399 x 409 km, 51.6° (Epoch: 30 March)

Event Time Altitude Azimuth Distance (km) Brightness Sun altitude
Exits shadow 04:29:47 17° 179° (S) 1,116 -1.8 -16.7°
Drops below altitude 10° 04:31:00 10° 163° (SSE) 1,470 -1.0 -16.5°
Sets 04:33:20 0° 148° (SSE) 2,328 0.2 -16.1°
